User: anonymous   Login
Location: Berg
(48.5667°N, 13.9833°E)
Time: 13:24:06
(UTC+00:00)
Language:

STARLINK-1203 - Orbit

View from above orbital plane
View from above orbital plane
View from above satellite
View from above satellite

Ground track
Ground track

The orbit data is extracted from the following two-line orbital elements,

1 45202U 20012AA  20191.65376545 +.00000953 +00000-0 +84423-4 0  9994
2 45202 052.9850 334.8274 0001593 120.4276 239.6870 15.05646724023038
Epoch (UTC): 09 July 2020 15:41:25
Eccentricity: 0.0001593
inclination: 52.9850°
perigee height: 548 km
apogee height: 550 km
right ascension of ascending node: 334.8274°
argument of perigee: 120.4276°
revolutions per day: 15.05646724
mean anomaly at epoch: 239.6870°
orbit number at epoch: 2303

The dashed part of the orbit path shows where the satellite is in the earth's shadow,  

DLR